Location: Unspecified
(0.0000°N, 0.0000°E)
Time: 21:18:32
(UTC+00:00)

Tiros 1 despin weight - Pass Details

Date: 31 May 2022
Orbit: 591 x 639 km, 48.2° (Epoch: 25 June)

Event Time Altitude Azimuth Distance (km) Brightness Sun altitude
Rises 01:26:33 0° 312° (NW) 2,805 - -59.2°
Reaches altitude 10° 01:28:52 10° 306° (NW) 1,909 - -58.8°
Maximum altitude 01:33:06 49° 231° (SW) 761 - -58.1°
Drops below altitude 10° 01:37:24 10° 155° (SSE) 1,932 - -57.3°
Sets 01:39:45 0° 150° (SSE) 2,843 - -56.9°
